Time,TemperatureF,DewpointF,PressureIn,WindDirection,WindDirectionDegrees,WindSpeedMPH,WindSpeedGustMPH,Humidity,HourlyPrecipIn,Conditions,Clouds,dailyrainin,SolarRadiationWatts/m^2,SoftwareType,DateUTC
2013-03-12 00:02:00,25.0,15.0,-100.00,NW,308,4.0,10.0,64,0.00,,,0.00,0.000000,,2013-03-12 06:02:00,
2013-03-12 00:11:00,25.0,15.0,-100.00,NW,308,4.0,10.0,64,0.00,,,0.00,0.000000,,2013-03-12 06:11:00,
2013-03-12 00:21:00,25.0,15.0,-100.00,NW,308,4.0,10.0,64,0.00,,,0.00,0.000000,,2013-03-12 06:21:00,
2013-03-12 00:42:00,25.0,19.0,-100.00,SSW,197,2.0,8.0,76,0.00,,,0.00,0.000000,,2013-03-12 06:42:00,
2013-03-12 00:52:00,25.0,19.0,-100.00,SSW,197,2.0,8.0,76,0.00,,,0.00,0.000000,,2013-03-12 06:52:00,
2013-03-12 01:02:00,25.0,19.0,-100.00,SSW,197,2.0,8.0,76,0.00,,,0.00,0.000000,,2013-03-12 07:02:00,
2013-03-12 01:12:00,25.0,19.0,-100.00,SSW,197,2.0,8.0,76,0.00,,,0.00,0.000000,,2013-03-12 07:12:00,
2013-03-12 01:21:00,25.0,19.0,-100.00,SSW,197,2.0,8.0,76,0.00,,,0.00,0.000000,,2013-03-12 07:21:00,
2013-03-12 01:42:00,23.0,19.0,-100.00,SW,230,4.0,6.0,83,0.00,,,0.00,0.000000,,2013-03-12 07:42:00,
2013-03-12 01:52:00,23.0,19.0,-100.00,SW,230,4.0,6.0,83,0.00,,,0.00,0.000000,,2013-03-12 07:52:00,
2013-03-12 02:02:00,23.0,19.0,-100.00,SW,230,4.0,6.0,83,0.00,,,0.00,0.000000,,2013-03-12 08:02:00,
2013-03-12 02:12:00,23.0,19.0,-100.00,SW,230,4.0,6.0,83,0.00,,,0.00,0.000000,,2013-03-12 08:12:00,
2013-03-12 02:21:00,23.0,19.0,-100.00,SW,230,4.0,6.0,83,0.00,,,0.00,0.000000,,2013-03-12 08:21:00,
2013-03-12 02:42:00,21.0,16.0,-100.00,WSW,250,7.0,7.0,80,0.00,,,0.00,0.000000,,2013-03-12 08:42:00,
2013-03-12 02:52:00,21.0,16.0,-100.00,WSW,250,7.0,7.0,80,0.00,,,0.00,0.000000,,2013-03-12 08:52:00,
2013-03-12 03:03:00,21.0,16.0,-100.00,WSW,250,7.0,7.0,80,0.00,,,0.00,0.000000,,2013-03-12 09:03:00,
2013-03-12 03:11:00,21.0,16.0,-100.00,WSW,250,7.0,7.0,80,0.00,,,0.00,0.000000,,2013-03-12 09:11:00,
2013-03-12 03:21:00,21.0,16.0,-100.00,WSW,250,7.0,7.0,80,0.00,,,0.00,0.000000,,2013-03-12 09:21:00,
2013-03-12 03:22:00,19.0,12.0,-100.00,WSW,241,7.0,9.0,75,0.00,,,0.00,0.000000,,2013-03-12 09:22:00,
2013-03-12 03:42:00,19.0,12.0,-100.00,WSW,241,7.0,9.0,75,0.00,,,0.00,0.000000,,2013-03-12 09:42:00,
2013-03-12 03:52:00,19.0,12.0,-100.00,WSW,241,7.0,9.0,75,0.00,,,0.00,0.000000,,2013-03-12 09:52:00,
2013-03-12 04:02:00,19.0,12.0,-100.00,WSW,241,7.0,9.0,75,0.00,,,0.00,0.000000,,2013-03-12 10:02:00,
2013-03-12 04:12:00,19.0,12.0,-100.00,WSW,241,7.0,9.0,75,0.00,,,0.00,0.000000,,2013-03-12 10:12:00,
2013-03-12 04:42:00,19.0,12.0,-100.00,WSW,249,8.0,10.0,73,0.00,,,0.00,0.000000,,2013-03-12 10:42:00,
2013-03-12 04:52:00,19.0,12.0,-100.00,WSW,249,8.0,10.0,73,0.00,,,0.00,0.000000,,2013-03-12 10:52:00,
2013-03-12 05:02:00,19.0,12.0,-100.00,WSW,249,8.0,10.0,73,0.00,,,0.00,0.000000,,2013-03-12 11:02:00,
2013-03-12 05:12:00,19.0,12.0,-100.00,WSW,249,8.0,10.0,73,0.00,,,0.00,0.000000,,2013-03-12 11:12:00,
2013-03-12 05:21:00,19.0,12.0,-100.00,WSW,249,8.0,10.0,73,0.00,,,0.00,0.000000,,2013-03-12 11:21:00,
2013-03-12 05:42:00,19.0,12.0,-100.00,WSW,249,7.0,11.0,73,0.00,,,-99.99,0.000000,,2013-03-12 11:42:00,
2013-03-12 05:52:00,19.0,12.0,-100.00,WSW,249,7.0,11.0,73,0.00,,,-99.99,0.000000,,2013-03-12 11:52:00,
2013-03-12 06:02:00,19.0,12.0,-100.00,WSW,249,7.0,11.0,73,0.00,,,-99.99,0.000000,,2013-03-12 12:02:00,
2013-03-12 06:12:00,19.0,12.0,-100.00,WSW,249,7.0,11.0,73,0.00,,,-99.99,0.000000,,2013-03-12 12:12:00,
2013-03-12 06:21:00,19.0,12.0,-100.00,WSW,249,7.0,11.0,73,0.00,,,-99.99,0.000000,,2013-03-12 12:21:00,
2013-03-12 06:42:00,18.0,11.0,-100.00,WSW,246,7.0,9.0,73,0.00,,,0.00,0.000000,,2013-03-12 12:42:00,
2013-03-12 06:52:00,18.0,11.0,-100.00,WSW,246,7.0,9.0,73,0.00,,,0.00,0.000000,,2013-03-12 12:52:00,
2013-03-12 07:02:00,18.0,11.0,-100.00,WSW,246,7.0,9.0,73,0.00,,,0.00,0.000000,,2013-03-12 13:02:00,
2013-03-12 07:12:00,18.0,11.0,-100.00,WSW,246,7.0,9.0,73,0.00,,,0.00,0.000000,,2013-03-12 13:12:00,
2013-03-12 07:21:00,18.0,11.0,-100.00,WSW,246,7.0,9.0,73,0.00,,,0.00,0.000000,,2013-03-12 13:21:00,
2013-03-12 07:43:00,18.0,11.0,-100.00,WSW,245,7.0,10.0,72,0.00,,,0.00,0.000000,,2013-03-12 13:43:00,
2013-03-12 07:52:00,18.0,11.0,-100.00,WSW,245,7.0,10.0,72,0.00,,,0.00,0.000000,,2013-03-12 13:52:00,
2013-03-12 08:02:00,18.0,11.0,-100.00,WSW,245,7.0,10.0,72,0.00,,,0.00,0.000000,,2013-03-12 14:02:00,
2013-03-12 08:12:00,18.0,11.0,-100.00,WSW,245,7.0,10.0,72,0.00,,,0.00,0.000000,,2013-03-12 14:12:00,
2013-03-12 08:21:00,18.0,11.0,-100.00,WSW,245,7.0,10.0,72,0.00,,,0.00,0.000000,,2013-03-12 14:21:00,
2013-03-12 08:43:00,18.0,9.0,-100.00,SW,232,5.0,9.0,68,0.00,,,0.00,0.000000,,2013-03-12 14:43:00,
2013-03-12 08:53:00,18.0,9.0,-100.00,SW,232,5.0,9.0,68,0.00,,,0.00,0.000000,,2013-03-12 14:53:00,
2013-03-12 09:02:00,18.0,9.0,-100.00,SW,232,5.0,9.0,68,0.00,,,0.00,0.000000,,2013-03-12 15:02:00,
2013-03-12 09:12:00,18.0,9.0,-100.00,SW,232,5.0,9.0,68,0.00,,,0.00,0.000000,,2013-03-12 15:12:00,
2013-03-12 09:21:00,18.0,9.0,-100.00,SW,232,5.0,9.0,68,0.00,,,0.00,0.000000,,2013-03-12 15:21:00,
2013-03-12 09:42:00,22.0,11.0,-100.00,NE,45,0.0,10.0,62,0.00,,,0.00,32.000000,,2013-03-12 15:42:00,
2013-03-12 09:53:00,22.0,11.0,-100.00,NE,45,0.0,10.0,62,0.00,,,0.00,32.000000,,2013-03-12 15:53:00,
2013-03-12 10:02:00,22.0,11.0,-100.00,NE,45,0.0,10.0,62,0.00,,,0.00,32.000000,,2013-03-12 16:02:00,
2013-03-12 10:12:00,22.0,11.0,-100.00,NE,45,0.0,10.0,62,0.00,,,0.00,32.000000,,2013-03-12 16:12:00,
2013-03-12 10:21:00,22.0,11.0,-100.00,NE,45,0.0,10.0,62,0.00,,,0.00,32.000000,,2013-03-12 16:21:00,
2013-03-12 10:43:00,28.0,14.0,-100.00,NNE,17,2.0,5.0,54,0.00,,,0.00,235.000000,,2013-03-12 16:43:00,
2013-03-12 10:53:00,28.0,14.0,-100.00,NNE,17,2.0,5.0,54,0.00,,,0.00,235.000000,,2013-03-12 16:53:00,
2013-03-12 11:02:00,28.0,14.0,-100.00,NNE,17,2.0,5.0,54,0.00,,,0.00,235.000000,,2013-03-12 17:02:00,
2013-03-12 11:21:00,28.0,14.0,-100.00,NNE,17,2.0,5.0,54,0.00,,,0.00,235.000000,,2013-03-12 17:21:00,
2013-03-12 11:22:00,32.0,13.0,-100.00,East,82,1.0,5.0,45,0.00,,,0.00,398.000000,,2013-03-12 17:22:00,
2013-03-12 11:44:00,32.0,13.0,-100.00,East,82,1.0,5.0,45,0.00,,,0.00,398.000000,,2013-03-12 17:44:00,
2013-03-12 11:53:00,32.0,13.0,-100.00,East,82,1.0,5.0,45,0.00,,,0.00,398.000000,,2013-03-12 17:53:00,
2013-03-12 12:02:00,32.0,13.0,-100.00,East,82,1.0,5.0,45,0.00,,,0.00,398.000000,,2013-03-12 18:02:00,
2013-03-12 12:12:00,32.0,13.0,-100.00,East,82,1.0,5.0,45,0.00,,,0.00,398.000000,,2013-03-12 18:12:00,
2013-03-12 12:22:00,34.0,15.0,-100.00,East,83,3.0,5.0,45,0.00,,,0.00,382.000000,,2013-03-12 18:22:00,
2013-03-12 12:43:00,34.0,15.0,-100.00,East,83,3.0,5.0,45,0.00,,,0.00,382.000000,,2013-03-12 18:43:00,
2013-03-12 12:53:00,34.0,15.0,-100.00,East,83,3.0,5.0,45,0.00,,,0.00,382.000000,,2013-03-12 18:53:00,
2013-03-12 13:03:00,34.0,15.0,-100.00,East,83,3.0,5.0,45,0.00,,,0.00,382.000000,,2013-03-12 19:03:00,
2013-03-12 13:12:00,34.0,15.0,-100.00,East,83,3.0,5.0,45,0.00,,,0.00,382.000000,,2013-03-12 19:12:00,
2013-03-12 13:43:00,36.0,8.0,-100.00,ESE,119,7.0,7.0,30,0.00,,,0.00,443.000000,,2013-03-12 19:43:00,
2013-03-12 13:53:00,36.0,8.0,-100.00,ESE,119,7.0,7.0,30,0.00,,,0.00,443.000000,,2013-03-12 19:53:00,
2013-03-12 14:22:00,43.0,16.0,-100.00,South,176,6.0,0.0,33,-99.99,,,-99.99,0.000000,,2013-03-12 20:22:00,
2013-03-12 14:53:00,43.0,16.0,-100.00,South,176,6.0,0.0,33,-99.99,,,-99.99,0.000000,,2013-03-12 20:53:00,
2013-03-12 15:02:00,43.0,16.0,-100.00,South,176,6.0,0.0,33,-99.99,,,-99.99,0.000000,,2013-03-12 21:02:00,
2013-03-12 15:12:00,43.0,16.0,-100.00,South,176,6.0,0.0,33,-99.99,,,-99.99,0.000000,,2013-03-12 21:12:00,
2013-03-12 15:22:00,48.0,18.0,-100.00,NNW,341,3.0,67.0,30,0.00,,,-99.99,752.000000,,2013-03-12 21:22:00,
2013-03-12 15:52:00,48.0,18.0,-100.00,NNW,341,3.0,67.0,30,0.00,,,-99.99,752.000000,,2013-03-12 21:52:00,
2013-03-12 16:02:00,48.0,18.0,-100.00,NNW,341,3.0,67.0,30,0.00,,,-99.99,752.000000,,2013-03-12 22:02:00,
2013-03-12 16:12:00,48.0,18.0,-100.00,NNW,341,3.0,67.0,30,0.00,,,-99.99,752.000000,,2013-03-12 22:12:00,
2013-03-12 16:22:00,48.0,19.0,-100.00,East,100,3.0,8.0,31,0.00,,,-99.99,555.000000,,2013-03-12 22:22:00,
2013-03-12 16:53:00,48.0,19.0,-100.00,East,100,3.0,8.0,31,0.00,,,-99.99,555.000000,,2013-03-12 22:53:00,
2013-03-12 17:02:00,48.0,19.0,-100.00,East,100,3.0,8.0,31,0.00,,,-99.99,555.000000,,2013-03-12 23:02:00,
2013-03-12 17:12:00,48.0,19.0,-100.00,East,100,3.0,8.0,31,0.00,,,-99.99,555.000000,,2013-03-12 23:12:00,
2013-03-12 17:22:00,47.0,19.0,-100.00,ESE,116,2.0,7.0,32,0.00,,,-99.99,326.000000,,2013-03-12 23:22:00,
2013-03-12 17:43:00,47.0,19.0,-100.00,ESE,116,2.0,7.0,32,0.00,,,-99.99,326.000000,,2013-03-12 23:43:00,
2013-03-12 17:52:00,47.0,19.0,-100.00,ESE,116,2.0,7.0,32,0.00,,,-99.99,326.000000,,2013-03-12 23:52:00,
2013-03-12 18:02:00,47.0,19.0,-100.00,ESE,116,2.0,7.0,32,0.00,,,-99.99,326.000000,,2013-03-13 00:02:00,
2013-03-12 18:12:00,47.0,19.0,-100.00,ESE,116,2.0,7.0,32,0.00,,,-99.99,326.000000,,2013-03-13 00:12:00,
2013-03-12 18:42:00,48.0,20.0,-100.00,NNE,25,1.0,6.0,33,0.00,,,-99.99,169.000000,,2013-03-13 00:42:00,
2013-03-12 18:53:00,48.0,20.0,-100.00,NNE,25,1.0,6.0,33,0.00,,,-99.99,169.000000,,2013-03-13 00:53:00,
2013-03-12 19:02:00,48.0,20.0,-100.00,NNE,25,1.0,6.0,33,0.00,,,-99.99,169.000000,,2013-03-13 01:02:00,
2013-03-12 19:12:00,48.0,20.0,-100.00,NNE,25,1.0,6.0,33,0.00,,,-99.99,169.000000,,2013-03-13 01:12:00,
2013-03-12 19:21:00,48.0,20.0,-100.00,NNE,25,1.0,6.0,33,0.00,,,-99.99,169.000000,,2013-03-13 01:21:00,
2013-03-12 19:43:00,47.0,23.0,-100.00,WNW,285,16.0,23.0,38,0.00,,,-99.99,55.000000,,2013-03-13 01:43:00,
2013-03-12 19:52:00,47.0,23.0,-100.00,WNW,285,16.0,23.0,38,0.00,,,-99.99,55.000000,,2013-03-13 01:52:00,
2013-03-12 20:02:00,47.0,23.0,-100.00,WNW,285,16.0,23.0,38,0.00,,,-99.99,55.000000,,2013-03-13 02:02:00,
2013-03-12 20:12:00,47.0,23.0,-100.00,WNW,285,16.0,23.0,38,0.00,,,-99.99,55.000000,,2013-03-13 02:12:00,
2013-03-12 20:21:00,47.0,23.0,-100.00,WNW,285,16.0,23.0,38,0.00,,,-99.99,55.000000,,2013-03-13 02:21:00,
2013-03-12 20:43:00,48.0,22.0,-100.00,West,277,15.0,22.0,36,0.00,,,-99.99,0.000000,,2013-03-13 02:43:00,
2013-03-12 20:52:00,48.0,22.0,-100.00,West,277,15.0,22.0,36,0.00,,,-99.99,0.000000,,2013-03-13 02:52:00,
2013-03-12 21:02:00,48.0,22.0,-100.00,West,277,15.0,22.0,36,0.00,,,-99.99,0.000000,,2013-03-13 03:02:00,
2013-03-12 21:12:00,48.0,22.0,-100.00,West,277,15.0,22.0,36,0.00,,,-99.99,0.000000,,2013-03-13 03:12:00,
2013-03-12 21:21:00,48.0,22.0,-100.00,West,277,15.0,22.0,36,0.00,,,-99.99,0.000000,,2013-03-13 03:21:00,
2013-03-12 21:42:00,47.0,20.0,-100.00,West,277,14.0,22.0,34,0.00,,,-99.99,0.000000,,2013-03-13 03:42:00,
2013-03-12 21:52:00,47.0,20.0,-100.00,West,277,14.0,22.0,34,0.00,,,-99.99,0.000000,,2013-03-13 03:52:00,
2013-03-12 22:02:00,47.0,20.0,-100.00,West,277,14.0,22.0,34,0.00,,,-99.99,0.000000,,2013-03-13 04:02:00,
2013-03-12 22:12:00,47.0,20.0,-100.00,West,277,14.0,22.0,34,0.00,,,-99.99,0.000000,,2013-03-13 04:12:00,
2013-03-12 22:21:00,47.0,20.0,-100.00,West,277,14.0,22.0,34,0.00,,,-99.99,0.000000,,2013-03-13 04:21:00,
2013-03-12 22:22:00,48.0,21.0,-100.00,WSW,242,12.0,23.0,34,0.00,,,-99.99,0.000000,,2013-03-13 04:22:00,
2013-03-12 22:43:00,48.0,21.0,-100.00,WSW,242,12.0,23.0,34,0.00,,,-99.99,0.000000,,2013-03-13 04:43:00,
2013-03-12 22:53:00,48.0,21.0,-100.00,WSW,242,12.0,23.0,34,0.00,,,-99.99,0.000000,,2013-03-13 04:53:00,
2013-03-12 23:12:00,48.0,21.0,-100.00,WSW,242,12.0,23.0,34,0.00,,,-99.99,0.000000,,2013-03-13 05:12:00,
2013-03-12 23:42:00,46.0,21.0,-100.00,West,274,14.0,24.0,36,-99.99,,,-99.99,0.000000,,2013-03-13 05:42:00,
2013-03-12 23:52:00,46.0,21.0,-100.00,West,274,14.0,24.0,36,-99.99,,,-99.99,0.000000,,2013-03-13 05:52:00,